Weather History for Fort Wayne, IN

Change the Weather History Date:

Sunday, March 9, 2014

  Actual Average Record
Temperature  
Mean Temperature 26 °F 36 °F  
Max Temperature 37 °F 45 °F 66 °F (1974)
Min Temperature 15 °F 26 °F -7 °F (1984)
Degree Days  
Heating Degree Days 39 29  
Month to date heating degree days 405 278  
Since 1 July heating degree days 5658 4876  
Cooling Degree Days 0 0  
Month to date cooling degree days 0 0  
Year to date cooling degree days 0 0  
Moisture  
Dew Point 22 °F    
Average Humidity 78    
Maximum Humidity 92    
Minimum Humidity 64    
Precipitation  
Precipitation 0.00 in 0.07 in 1.34 in (1998)
Month to date precipitation 0.46 0.70  
Year to date precipitation 6.54 5.00  
Snow  
Snow 0.00 in 0.20 in 5.10 in (1999)
Month to date snowfall 5.1 1.7  
Since 1 July snowfall 65.5 30.1  
Snow Depth 1.00 in    
Sea Level Pressure  
Sea Level Pressure 30.17 in    
Wind  
Wind Speed 10 mph (WSW)    
Max Wind Speed 17 mph    
Max Gust Speed 20 mph    
Visibility 9 miles    
Events      
T = Trace of Precipitation, MM = Missing Value Source: NWS Daily Summary

Daily Weather History Graph

Daily Weather History Graph

Search for Another Location

Airport:

Trip Planner

Search our weather history database for the weather conditions in past years. The results will help you decide how hot, cold, wet, or windy it might be!

Date:

Astronomy

Mar. 09, 2014 Rise Set
Actual Time 8:02 AM EDT 7:40 PM EDT
Civil Twilight 7:34 AM EDT 8:08 PM EDT
Nautical Twilight 7:03 AM EDT 8:40 PM EDT
Astronomical Twilight 6:31 AM EDT 9:12 PM EDT
Moon 1:31 PM EDT (3/9) 3:29 AM EDT (3/9)
Length of Visible Light 12h 33m
Length of Day
11h 38m
First Quarter, 61% of the Moon is Illuminated
Mar 9
First Quarter
Mar 16
Full
Mar 23
Last Quarter
Mar 30
New
Apr 7
First Quarter

Hourly Weather History & Observations

Time (EDT) Temp. Windchill Dew Point Humidity Pressure Visibility Wind Dir Wind Speed Gust Speed Precip Events Conditions
12:04 AM 27.0 °F 17.3 °F 21.0 °F 78% 30.20 in 10.0 mi NW 10.4 mph - 0.00 in   Overcast
12:54 AM 25.0 °F 14.2 °F 19.0 °F 78% 30.24 in 10.0 mi NW 11.5 mph - N/A   Scattered Clouds
1:54 AM 23.0 °F 15.8 °F 17.1 °F 78% 30.25 in 10.0 mi NW 5.8 mph - N/A   Partly Cloudy
3:54 AM 19.9 °F 13.4 °F 16.0 °F 85% 30.26 in 10.0 mi WNW 4.6 mph - N/A   Clear
4:54 AM 19.0 °F 13.9 °F 15.1 °F 85% 30.25 in 10.0 mi WNW 3.5 mph - N/A   Clear
5:54 AM 17.1 °F 7.6 °F 14.0 °F 88% 30.26 in 10.0 mi West 6.9 mph - N/A   Clear
6:54 AM 15.1 °F 7.7 °F 12.0 °F 88% 30.27 in 10.0 mi WSW 4.6 mph - N/A   Clear
7:54 AM 17.1 °F 8.7 °F 14.0 °F 88% 30.29 in 8.0 mi WSW 5.8 mph - N/A   Scattered Clouds
8:54 AM 19.0 °F 11.1 °F 17.1 °F 92% 30.31 in 5.0 mi WSW 5.8 mph - N/A   Scattered Clouds
9:54 AM 21.9 °F 12.5 °F 19.0 °F 89% 30.31 in 5.0 mi WSW 8.1 mph - N/A   Partly Cloudy
10:54 AM 26.1 °F 19.4 °F 21.0 °F 81% 30.29 in 6.0 mi WSW 5.8 mph - N/A   Haze
11:54 AM 28.0 °F 19.3 °F 23.0 °F 81% 30.26 in 9.0 mi SSW 9.2 mph - N/A   Partly Cloudy
12:54 PM 30.9 °F 21.2 °F 21.9 °F 69% 30.23 in 10.0 mi SW 12.7 mph - N/A   Scattered Clouds
1:54 PM 33.1 °F 23.9 °F 23.0 °F 66% 30.22 in 10.0 mi SW 12.7 mph - N/A   Mostly Cloudy
2:54 PM 35.1 °F 26.4 °F 25.0 °F 67% 30.19 in 10.0 mi WSW 12.7 mph - N/A   Mostly Cloudy
3:54 PM 35.1 °F 25.2 °F 25.0 °F 67% 30.14 in 10.0 mi SW 16.1 mph - N/A   Overcast
4:54 PM 36.0 °F 27.1 °F 26.1 °F 67% 30.11 in 10.0 mi WSW 13.8 mph - N/A   Mostly Cloudy
5:54 PM 36.0 °F 27.1 °F 27.0 °F 70% 30.09 in 10.0 mi SW 13.8 mph - N/A   Mostly Cloudy
6:54 PM 36.0 °F 28.5 °F 28.0 °F 73% 30.05 in 9.0 mi SSW 10.4 mph - N/A   Mostly Cloudy
7:54 PM 35.1 °F 26.4 °F 28.0 °F 76% 30.03 in 10.0 mi SSW 12.7 mph - N/A   Mostly Cloudy
8:54 PM 35.1 °F 27.4 °F 28.0 °F 76% 30.02 in 10.0 mi SW 10.4 mph - N/A   Mostly Cloudy
9:54 PM 34.0 °F 27.2 °F 28.9 °F 82% 30.00 in 10.0 mi SSW 8.1 mph - N/A   Mostly Cloudy
10:54 PM 35.1 °F 26.4 °F 28.0 °F 76% 29.97 in 10.0 mi SSW 12.7 mph - N/A   Mostly Cloudy
11:54 PM 35.1 °F 25.5 °F 28.0 °F 76% 29.95 in 10.0 mi SW 15.0 mph - N/A   Mostly Cloudy
12:54 AM 35.1 °F 25.9 °F 28.9 °F 78% 29.94 in 8.0 mi WSW 13.8 mph - N/A   Mostly Cloudy